This demonstration page uses our WeatherBlox Daily Observations layout. Learn more.

Left ArrowRight Arrow

34.16533, -84.80231

Hourly Observations for March 13, 2022

Temp ( °F °C ) Dew Point ( °F °C ) Humidity (%) Winds ( mph kmh ) Pressure ( in mb ) Visibility ( mi km ) Precip ( " mm )
12:15 am 00:15 Clear 27 -3 5 -15 39 39 WNW 3 6 30.42 1030 10 16 0.00 0.00
12:35 am 00:35 Clear 27 -3 7 -14 43 43 Calm 30.42 1030 10 16 0.00 0.00
12:55 am 00:55 Clear 25 -4 7 -14 46 46 W 3 6 30.42 1030 10 16 0.00 0.00
1:15 am 01:15 Clear 27 -3 7 -14 43 43 Calm 30.43 1030 10 16 0.00 0.00
1:35 am 01:35 Clear 25 -4 7 -14 46 46 Calm 30.43 1031 10 16 0.00 0.00
1:55 am 01:55 Clear 25 -4 7 -14 46 46 Calm 30.43 1031 10 16 0.00 0.00
3:15 am 03:15 Clear 25 -4 10 -12 54 54 Calm 30.43 1031 10 16 0.00 0.00
3:35 am 03:35 Clear 25 -4 9 -13 50 50 Calm 30.44 1031 10 16 0.00 0.00
3:55 am 03:55 Clear 25 -4 9 -13 50 50 Calm 30.44 1031 10 16 0.00 0.00
4:15 am 04:15 Clear 23 -5 9 -13 54 54 Calm 30.45 1031 10 16 0.00 0.00
4:35 am 04:35 Clear 23 -5 10 -12 58 58 Calm 30.45 1031 10 16 0.00 0.00
4:55 am 04:55 Clear 21 -6 16 -9 80 80 Calm 30.45 1031 10 16 0.00 0.00
5:15 am 05:15 Clear 21 -6 14 -10 74 74 Calm 30.46 1031 10 16 0.00 0.00
5:35 am 05:35 Mostly Clear 21 -6 14 -10 74 74 Calm 30.45 1031 10 16 0.00 0.00
5:55 am 05:55 Clear 21 -6 14 -10 74 74 undefined N/A 30.45 1031 10 16 0.00 0.00
6:15 am 06:15 Clear 21 -6 14 -10 74 74 Calm 30.46 1031 10 16 0.00 0.00
6:35 am 06:35 Clear 21 -6 18 -8 86 86 Calm 30.48 1032 10 16 0.00 0.00
6:55 am 06:55 Clear 21 -6 14 -10 74 74 Calm 30.48 1032 10 16 0.00 0.00
7:15 am 07:15 Clear 21 -6 16 -9 80 80 Calm 30.49 1032 10 16 0.00 0.00
7:35 am 07:35 Clear 21 -6 16 -9 80 80 Calm 30.49 1032 10 16 0.00 0.00
7:55 am 07:55 Sunny 21 -6 18 -8 86 86 Calm 30.50 1033 10 16 0.00 0.00
8:15 am 08:15 Sunny 21 -6 16 -9 80 80 Calm 30.50 1033 10 16 0.00 0.00
8:35 am 08:35 Sunny 23 -5 18 -8 80 80 undefined N/A 30.51 1033 10 16 0.00 0.00
8:55 am 08:55 Sunny 25 -4 18 -8 74 74 Calm 30.51 1033 10 16 0.00 0.00
9:15 am 09:15 Sunny 25 -4 14 -10 63 63 WNW 5 7 30.52 1034 10 16 0.00 0.00
9:35 am 09:35 Sunny 27 -3 14 -10 59 59 Calm 30.52 1033 10 16 0.00 0.00
9:55 am 09:55 Sunny 28 -2 12 -11 51 51 Calm 30.53 1034 10 16 0.00 0.00
10:15 am 10:15 Sunny 30 -1 9 -13 40 40 VRB 5 7 30.52 1034 10 16 0.00 0.00
10:35 am 10:35 Sunny 30 -1 9 -13 40 40 Calm 30.52 1034 10 16 0.00 0.00
10:55 am 10:55 Sunny 32 0 10 -12 40 40 Calm 30.52 1034 10 16 0.00 0.00
11:15 am 11:15 Sunny 32 0 9 -13 37 37 WSW 7 11 30.52 1034 10 16 0.00 0.00
11:35 am 11:35 Sunny 34 1 10 -12 38 38 W 5 7 30.52 1033 10 16 0.00 0.00
11:55 am 11:55 Sunny 36 2 12 -11 38 38 VRB 3 6 30.51 1033 10 16 0.00 0.00
12:15 pm 12:15 Sunny 36 2 10 -12 35 35 Calm 30.51 1033 10 16 0.00 0.00
12:35 pm 12:35 Sunny 37 3 12 -11 35 35 Calm 30.50 1033 10 16 0.00 0.00
12:55 pm 12:55 Sunny 39 4 10 -12 30 30 VRB 5 7 30.50 1033 10 16 0.00 0.00
1:15 pm 13:15 Sunny 41 5 12 -11 31 31 VRB 5 7 30.48 1032 10 16 0.00 0.00
1:35 pm 13:35 Sunny 43 6 12 -11 29 29 WSW 6 9 30.47 1032 10 16 0.00 0.00
1:55 pm 13:55 Sunny 45 7 10 -12 25 25 W 5 7 30.46 1031 10 16 0.00 0.00
2:15 pm 14:15 Sunny 46 8 10 -12 23 23 S 5 7 30.45 1031 10 16 0.00 0.00
2:35 pm 14:35 Sunny 46 8 10 -12 23 23 VRB 3 6 30.44 1031 10 16 0.00 0.00
2:55 pm 14:55 Sunny 48 9 12 -11 23 23 VRB 3 6 30.42 1030 10 16 0.00 0.00
3:15 pm 15:15 Sunny 48 9 12 -11 23 23 VRB 5 7 30.40 1030 10 16 0.00 0.00
3:35 pm 15:35 Sunny 50 10 12 -11 22 22 VRB 7 11 30.39 1029 10 16 0.00 0.00
3:55 pm 15:55 Sunny 52 11 12 -11 20 20 Calm 30.38 1029 10 16 0.00 0.00
4:15 pm 16:15 Sunny 52 11 14 -10 22 22 Calm 30.37 1028 10 16 0.00 0.00
4:35 pm 16:35 Sunny 54 12 14 -10 21 21 VRB 6 9 30.36 1028 10 16 0.00 0.00
4:55 pm 16:55 Sunny 54 12 12 -11 19 19 Calm 30.35 1028 10 16 0.00 0.00
5:15 pm 17:15 Sunny 55 13 14 -10 19 19 SW 6 9 30.35 1028 10 16 0.00 0.00
5:35 pm 17:35 Sunny 54 12 14 -10 21 21 SW 6 9 30.35 1028 10 16 0.00 0.00
5:55 pm 17:55 Sunny 55 13 16 -9 21 21 Calm 30.34 1027 10 16 0.00 0.00
6:15 pm 18:15 Sunny 54 12 16 -9 22 22 Calm 30.35 1028 10 16 0.00 0.00
6:35 pm 18:35 Sunny 54 12 16 -9 22 22 Calm 30.35 1028 10 16 0.00 0.00
6:55 pm 18:55 Sunny 55 13 16 -9 21 21 Calm 30.35 1028 10 16 0.00 0.00
7:15 pm 19:15 Sunny 54 12 18 -8 24 24 Calm 30.35 1028 10 16 0.00 0.00
7:35 pm 19:35 Sunny 54 12 16 -9 22 22 Calm 30.35 1028 10 16 0.00 0.00
7:55 pm 19:55 Clear 52 11 19 -7 28 28 Calm 30.37 1028 10 16 0.00 0.00
8:15 pm 20:15 Clear 50 10 23 -5 35 35 Calm 30.37 1028 10 16 0.00 0.00
8:35 pm 20:35 Clear 46 8 27 -3 46 46 Calm 30.39 1029 10 16 0.00 0.00
8:55 pm 20:55 Clear 45 7 25 -4 46 46 Calm 30.39 1029 10 16 0.00 0.00
9:15 pm 21:15 Mostly Clear 45 7 25 -4 46 46 ESE 3 6 30.40 1029 10 16 0.00 0.00
9:35 pm 21:35 Clear 43 6 25 -4 49 49 Calm 30.41 1030 10 16 0.00 0.00
9:55 pm 21:55 Mostly Clear 41 5 28 -2 61 61 Calm 30.42 1030 10 16 0.00 0.00
10:15 pm 22:15 Clear 41 5 27 -3 57 57 Calm 30.42 1030 10 16 0.00 0.00
10:35 pm 22:35 Clear 39 4 28 -2 65 65 Calm 30.43 1030 10 16 0.00 0.00
10:55 pm 22:55 Clear 39 4 30 -1 70 70 Calm 30.44 1031 10 16 0.00 0.00
11:15 pm 23:15 Clear 39 4 28 -2 65 65 Calm 30.44 1031 10 16 0.00 0.00
11:35 pm 23:35 Clear 39 4 32 0 75 75 Calm 30.44 1031 10 16 0.00 0.00
11:55 pm 23:55 Clear 37 3 32 0 81 81 Calm 30.45 1031 10 16 0.00 0.00

Powered by AerisWeather